Weather History for Louisa, VA

Change the Weather History Date:

Saturday, November 2, 2013

  Actual Average (KCHO) Record (KCHO)
Temperature  
Mean Temperature 58 °F 51 °F  
Max Temperature 73 °F 63 °F 88 °F (1950)
Min Temperature 42 °F 40 °F 26 °F (1993)
Degree Days  
Heating Degree Days 8 14  
Month to date heating degree days 28  
Since 1 July heating degree days 377  
Cooling Degree Days 0 0  
Month to date cooling degree days 0  
Year to date cooling degree days 1034  
Growing Degree Days 8 (Base 50)    
Moisture  
Dew Point 49 °F    
Average Humidity 73    
Maximum Humidity 100    
Minimum Humidity 29    
Precipitation  
Precipitation 0.01 in 0.13 in 2.05 in (1985)
Month to date precipitation 0.25  
Year to date precipitation 35.98  
Sea Level Pressure  
Sea Level Pressure 29.73 in    
Wind  
Wind Speed 3 mph (WNW)    
Max Wind Speed 14 mph    
Max Gust Speed 23 mph    
Visibility 7 miles    
Events Fog , Rain    
T = Trace of Precipitation, MM = Missing Value Source: NWS Daily Summary

Daily Weather History Graph

Daily Weather History Graph

Search for Another Location

Airport:

Trip Planner

Search our weather history database for the weather conditions in past years. The results will help you decide how hot, cold, wet, or windy it might be!

Date:

Astronomy

Nov. 02, 2013 Rise Set
Actual Time 7:38 AM EDT 6:11 PM EDT
Civil Twilight 7:11 AM EDT 6:38 PM EDT
Nautical Twilight 6:40 AM EDT 7:09 PM EDT
Astronomical Twilight 6:09 AM EDT 7:40 PM EDT
Moon 6:34 AM EDT (11/2) 5:41 PM EDT (11/2)
Length of Visible Light 11h 27m
Length of Day
10h 32m
Waning Crescent, 1% of the Moon is Illuminated
Nov 2
Waning Crescent
Nov 3
New
Nov 10
First Quarter
Nov 17
Full
Nov 25
Last Quarter

Hourly Weather History & Observations

Time (EDT) Temp. Windchill Dew Point Humidity Pressure Visibility Wind Dir Wind Speed Gust Speed Precip Events Conditions
12:15 AM 64.4 °F - 64.4 °F 100% 29.66 in 7.0 mi SW 3.5 mph - N/A   Overcast
12:35 AM 64.4 °F - 62.6 °F 94% 29.65 in 7.0 mi SW 4.6 mph - N/A   Mostly Cloudy
12:55 AM 64.4 °F - 62.6 °F 94% 29.65 in 10.0 mi Calm Calm - N/A   Overcast
1:15 AM 62.6 °F - 62.6 °F 100% 29.65 in 7.0 mi WNW 4.6 mph - N/A   Mostly Cloudy
1:35 AM 64.4 °F - 62.6 °F 94% 29.66 in 10.0 mi Calm Calm - N/A   Overcast
1:55 AM 64.4 °F - 62.6 °F 94% 29.66 in 7.0 mi Calm Calm - N/A   Overcast
2:15 AM 64.4 °F - 62.6 °F 94% 29.67 in 7.0 mi Calm Calm - N/A   Overcast
2:35 AM 62.6 °F - 60.8 °F 94% 29.66 in 3.0 mi Calm Calm - N/A   Overcast
2:55 AM 60.8 °F - 60.8 °F 100% 29.66 in 0.8 mi Calm Calm - N/A   Overcast
3:15 AM 60.8 °F - 60.8 °F 100% 29.66 in 0.5 mi Calm Calm - N/A Fog Fog
3:35 AM 60.8 °F - 60.8 °F 100% 29.67 in 0.2 mi Calm Calm - N/A Fog Fog
3:55 AM 60.8 °F - 59.0 °F 94% 29.67 in 0.2 mi Calm Calm - N/A Fog Fog
4:15 AM 60.8 °F - 59.0 °F 94% 29.67 in 0.2 mi Calm Calm - N/A Fog Fog
4:35 AM 57.2 °F - 57.2 °F 100% 29.68 in 0.2 mi Calm Calm - N/A Fog Fog
4:55 AM 55.4 °F - 55.4 °F 100% 29.68 in 0.2 mi Calm Calm - N/A Fog Fog
5:15 AM 55.4 °F - 53.6 °F 94% 29.69 in 0.2 mi Calm Calm - N/A Fog Fog
5:35 AM 53.6 °F - 53.6 °F 100% 29.69 in 0.2 mi Calm Calm - N/A Fog Fog
5:55 AM 53.6 °F - 53.6 °F 100% 29.69 in 0.5 mi Calm Calm - N/A Fog Fog
6:15 AM 53.6 °F - 51.8 °F 94% 29.69 in 0.2 mi Calm Calm - N/A Fog Fog
6:35 AM 51.8 °F - 51.8 °F 100% 29.69 in 0.5 mi Calm Calm - N/A Fog Fog
6:55 AM 51.8 °F - 50.0 °F 94% 29.69 in 0.5 mi Calm Calm - N/A Fog Fog
7:15 AM 51.8 °F - 50.0 °F 94% 29.70 in 1.2 mi Calm Calm - 0.01 in   Mist
7:35 AM 51.8 °F - 50.0 °F 94% 29.71 in 0.8 mi Calm Calm - 0.01 in   Mostly Cloudy
7:55 AM 51.8 °F - 51.8 °F 100% 29.71 in 0.2 mi Calm Calm - 0.01 in Fog Fog
8:15 AM 51.8 °F - 50.0 °F 94% 29.72 in 0.8 mi Calm Calm - N/A   Overcast
8:35 AM 51.8 °F - 51.8 °F 100% 29.72 in 0.8 mi Calm Calm - N/A   Mostly Cloudy
8:55 AM 53.6 °F - 53.6 °F 100% 29.73 in 10.0 mi Calm Calm - N/A   Clear
9:15 AM 57.2 °F - 57.2 °F 100% 29.73 in 10.0 mi Calm Calm - N/A   Clear
9:35 AM 59.0 °F - 57.2 °F 94% 29.73 in 10.0 mi Calm Calm - N/A   Clear
9:55 AM 60.8 °F - 55.4 °F 82% 29.73 in 10.0 mi West 4.6 mph - N/A   Clear
10:15 AM 62.6 °F - 53.6 °F 72% 29.73 in 10.0 mi West 6.9 mph - N/A   Clear
10:35 AM 66.2 °F - 51.8 °F 60% 29.73 in 10.0 mi West 5.8 mph - N/A   Clear
10:55 AM 68.0 °F - 48.2 °F 49% 29.72 in 10.0 mi West 6.9 mph - N/A   Clear
11:15 AM 69.8 °F - 46.4 °F 43% 29.72 in 10.0 mi West 8.1 mph 17.3 mph N/A   Clear
11:35 AM 69.8 °F - 44.6 °F 40% 29.72 in 10.0 mi WSW 8.1 mph - N/A   Clear
11:55 AM 71.6 °F - 46.4 °F 41% 29.71 in 10.0 mi West 6.9 mph - N/A   Clear
1:15 PM 71.6 °F - 39.2 °F 31% 29.70 in 10.0 mi West 13.8 mph 18.4 mph N/A   Clear
1:35 PM 71.6 °F - 41.0 °F 33% 29.69 in 10.0 mi West 12.7 mph 17.3 mph N/A   Clear
1:55 PM 69.8 °F - 41.0 °F 35% 29.69 in 10.0 mi West 11.5 mph 17.3 mph N/A   Clear
2:15 PM 71.6 °F - 39.2 °F 31% 29.69 in 10.0 mi West 9.2 mph 17.3 mph N/A   Mostly Cloudy
2:35 PM 71.6 °F - 39.2 °F 31% 29.68 in 10.0 mi WSW 9.2 mph - N/A   Scattered Clouds
2:55 PM 73.4 °F - 39.2 °F 29% 29.67 in 10.0 mi West 11.5 mph 18.4 mph N/A   Clear
3:15 PM 71.6 °F - 37.4 °F 29% 29.68 in 10.0 mi West 12.7 mph 23.0 mph N/A   Clear
3:35 PM 71.6 °F - 37.4 °F 29% 29.68 in 10.0 mi West 10.4 mph 20.7 mph N/A   Clear
3:55 PM 69.8 °F - 37.4 °F 31% 29.69 in 10.0 mi WNW 11.5 mph 16.1 mph N/A   Clear
4:15 PM 68.0 °F - 39.2 °F 35% 29.70 in 10.0 mi WNW 5.8 mph - N/A   Scattered Clouds
4:35 PM 69.8 °F - 37.4 °F 31% 29.70 in 10.0 mi WNW 6.9 mph - N/A   Mostly Cloudy
4:55 PM 68.0 °F - 39.2 °F 35% 29.70 in 10.0 mi West 4.6 mph - N/A   Mostly Cloudy
5:15 PM 68.0 °F - 39.2 °F 35% 29.71 in 10.0 mi West 5.8 mph - N/A   Overcast
5:35 PM 66.2 °F - 37.4 °F 35% 29.72 in 10.0 mi West 6.9 mph - N/A   Overcast
5:55 PM 64.4 °F - 44.6 °F 49% 29.74 in 10.0 mi NNE 8.1 mph - N/A   Overcast
6:15 PM 62.6 °F - 44.6 °F 52% 29.75 in 10.0 mi NNE 6.9 mph - N/A   Mostly Cloudy
6:35 PM 62.6 °F - 44.6 °F 52% 29.77 in 10.0 mi North 4.6 mph - N/A   Mostly Cloudy
6:55 PM 60.8 °F - 46.4 °F 59% 29.78 in 10.0 mi North 4.6 mph - N/A   Drizzle
7:15 PM 57.2 °F - 48.2 °F 72% 29.79 in 10.0 mi Calm Calm - N/A Rain Light Rain
7:35 PM 55.4 °F - 50.0 °F 82% 29.80 in 10.0 mi East 3.5 mph - N/A   Overcast
7:55 PM 55.4 °F - 46.4 °F 72% 29.82 in 10.0 mi Calm Calm - N/A   Mostly Cloudy
8:15 PM 57.2 °F - 46.4 °F 67% 29.83 in 10.0 mi North 3.5 mph - N/A   Scattered Clouds
8:35 PM 55.4 °F - 44.6 °F 67% 29.84 in 10.0 mi Calm Calm - N/A   Mostly Cloudy
8:55 PM 51.8 °F - 42.8 °F 71% 29.84 in 10.0 mi Calm Calm - N/A   Mostly Cloudy
9:15 PM 50.0 °F - 42.8 °F 76% 29.85 in 10.0 mi Calm Calm - N/A   Overcast
9:35 PM 46.4 °F - 42.8 °F 87% 29.86 in 10.0 mi Calm Calm - N/A   Overcast
9:55 PM 46.4 °F - 42.8 °F 87% 29.87 in 10.0 mi Calm Calm - N/A   Scattered Clouds
10:15 PM 44.6 °F - 42.8 °F 93% 29.88 in 10.0 mi Calm Calm - N/A   Scattered Clouds
10:35 PM 42.8 °F - 41.0 °F 93% 29.88 in 10.0 mi Calm Calm - N/A   Clear
10:55 PM 42.8 °F - 39.2 °F 87% 29.89 in 10.0 mi Calm Calm - N/A   Clear
11:15 PM 44.6 °F - 41.0 °F 87% 29.90 in 10.0 mi Calm Calm - N/A   Clear
11:35 PM 44.6 °F 41.4 °F 39.2 °F 81% 29.90 in 10.0 mi WNW 5.8 mph - N/A   Clear
11:55 PM 46.4 °F 43.5 °F 39.2 °F 76% 29.90 in 10.0 mi WNW 5.8 mph - N/A   Clear